Regional Weather Roundup
Issued by NWS

Home | Current Version | Previous Version | Graphics & Text | Print | Product List | Glossary Off
Versions: 1 2 3 4 5 6 7 8 9 10 11 12 13 14 15 16 17 18 19 20 21 22 23 24 25 26 27 28 29 30 31 32 33 34 35 36 37 38 39 40 41 42 43 44 45 46 47 48 49 50

550
ASUS43 KTOP 200208
RWRKS

WEATHER ROUNDUP FOR KANSAS
NATIONAL WEATHER SERVICE GOODLAND KS
900 PM CDT THU OCT 19 2017

NOTE:  "FAIR" INDICATES FEW OR NO CLOUDS BELOW 12,000 FEET WITH NO
SIGNIFICANT WEATHER AND/OR OBSTRUCTIONS TO VISIBILITY.

KSZ001>006-013>018-027>032-041>047-200300-
NORTHWEST KANSAS

CITY           SKY/WX    TMP DP  RH WIND       PRES   REMARKS
GOODLAND       CLOUDY    61  46  57 S12       29.92S
HAYS           PTCLDY    62  47  57 SE10      29.97S
HILL CITY      CLOUDY    67  46  47 S15G23    29.95S
RUSSELL        CLOUDY    68  48  48 S17       29.97S
$$

KSZ061>065-074>080-084>089-200300-
SOUTHWEST KANSAS

CITY           SKY/WX    TMP DP  RH WIND       PRES   REMARKS
DODGE CITY     CLEAR     65  42  43 S15       30.00S
ELKHART          N/A     62  48  60 SE14        N/A
GARDEN CITY    CLEAR     64  41  42 S14       29.96S
GREAT BEND     PTCLDY    64  47  53 S14       30.00R
LIBERAL        CLOUDY    62  47  57 SE12      29.99R
PRATT          CLEAR     65  45  48 S13G18    30.03R
$$

KSZ066>073-081>083-090>101-200300-
SOUTHEAST KANSAS

CITY           SKY/WX    TMP DP  RH WIND       PRES   REMARKS
CHANUTE        PTCLDY    62  52  69 S9        30.09S
COFFEYVILLE    CLEAR     60  53  77 S6        30.09S
HUTCHINSON     CLOUDY    61  50  67 S10       30.02S
MEDICINE LODGE   N/A     65  48  54 SE8       30.03R
NEWTON         CLEAR     64  49  57 S16       30.04S
PARSONS        CLEAR     63  52  67 SE3       30.10S
WICHITA INTL   MOCLDY    64  52  64 S14       30.04S
WICHITA JABRA  CLEAR     63  51  65 S13       30.05S
WICHITA MCCONL CLEAR     63  50  63 S13       30.05S
WINFIELD       PTCLDY    62  54  74 S6        30.08R
$$

KSZ007>012-019>026-033>040-048>060-102>105-200300-
NORTHEAST KANSAS

CITY           SKY/WX    TMP DP  RH WIND       PRES   REMARKS
CONCORDIA      CLEAR     68  47  46 S16       29.98S
EMPORIA        PTCLDY    64  51  62 S13       30.06R
LAWRENCE       CLEAR     57  52  83 E8        30.06R
MANHATTAN      CLEAR     63  49  60 CALM      30.01S
MARYSVILLE     CLEAR     64  48  55 S5        30.00S
OLATHE IND     CLEAR     63  53  70 S8        30.08S
OLATHE EXE     CLEAR     60  53  77 S8        30.08S
SALINA         PTCLDY    64  50  60 S12       30.00S
TOPEKA BILLARD CLEAR     66  54  65 SE7       30.04S
TOPEKA FORBES  CLEAR     65  54  67 SE8       30.05R
$$




USA.gov is the U.S. government's official web portal to all federal, state and local government web resources and services.